[[{"header":{"parameterUnit":"m.s-1","parameterCategory":1,"la1":30.2991,"la2":30.254,"lo1":-89.0895,"lo2":-89.0444,"dy":0.0017,"dx":0.0017,"nx":28,"ny":28,"refTime":"2023-08-06T21:00:00:Z","depth":0,"parameterNumber":2,"parameterNumberName":"U-component_of_WINDS"},"data":[0,0,0,0,0,0,0,0,0,0,0,0,0,0,0,0,0,0,0,0,0,0,0,0,0,0,0,0,0,0,0,0,0,0,0,0,0,0,0,0,0,0,0,0,0,0,0,0,0,0,0,0,0,0,0,0,0,0,3.362,3.3621,0,3.3726,3.3727,3.3729,3.3763,3.3763,3.3762,3.3762,3.3874,3.3878,3.3881,0,0,0,0,0,0,0,0,0,0,0,0,0,3.3453,3.3456,3.362,3.3621,3.3623,3.3726,3.3727,3.3729,3.3764,3.3763,3.3762,3.3762,3.3873,3.3877,3.3881,0,0,0,0,0,0,0,0,0,0,0,0,0,3.3539,3.3457,3.362,3.3652,3.3656,3.3726,3.3727,3.3729,3.3764,3.3763,3.3762,3.3762,3.3872,3.3877,3.3882,3.3928,0,0,3.3898,3.39,0,0,0,0,0,0,0,0,3.3534,3.3545,3.3646,3.365,3.3655,3.3731,3.371,3.3796,3.3764,3.3723,3.3762,3.3761,3.3827,3.3836,3.3858,3.3933,3.3938,3.3898,3.3901,3.3903,3.3905,0,0,0,0,0,0,0,3.3528,3.3541,3.3662,3.3648,3.3653,3.3664,3.3675,3.3726,3.3778,3.3726,3.3729,3.3741,3.383,3.3853,3.3861,3.3939,3.3898,3.3903,3.3906,3.3908,3.4061,3.4062,0,0,0,0,0,0,3.3516,3.3536,3.3659,3.3665,3.3591,3.3667,3.368,3.3707,3.3777,3.3787,3.3742,3.3742,3.3844,3.3855,3.3865,3.3924,3.3903,3.3908,3.3911,3.406,3.4062,3.4063,0,0,0,0,0,0,3.3512,3.3527,3.3654,3.3601,3.3618,3.3671,3.3701,3.371,3.3733,3.3789,3.3799,3.3755,3.3844,3.3857,3.3912,3.3929,3.3911,3.3915,3.4059,3.4061,3.4062,3.4043,0,0,0,0,0,0,3.3508,3.3525,3.3541,3.3601,3.3621,3.3698,3.3702,3.3712,3.3741,3.3743,3.3804,3.3814,3.3845,3.3904,3.3917,3.3935,3.3919,3.4058,3.406,3.4062,3.4042,3.4044,3.4045,0,0,0,0,0,3.3501,3.3532,3.3542,3.3557,3.3642,3.3699,3.371,3.3744,3.3742,3.376,3.3797,3.3812,3.3925,3.391,3.3925,3.3944,3.4057,3.4059,3.4061,3.4042,3.4043,3.4045,0,0,0,0,0,0,3.3473,3.354,3.3552,3.3603,3.3645,3.3705,3.3728,3.3744,3.3789,3.3789,3.383,3.3844,3.3896,3.3926,3.3908,3.3994,3.3992,3.3997,3.3972,3.3974,3.3975,3.3966,3.3924,0,0,0,0,0,3.3472,3.3511,3.3569,3.3608,3.3629,3.3675,3.3701,3.3723,3.3769,3.3787,3.3828,3.3873,3.3919,3.3949,3.3994,3.4048,3.4063,3.4069,3.407,3.4071,3.4075,3.4108,3.4112,3.407,3.407,3.407,0,0,3.3472,3.3513,3.3535,3.3603,3.3639,3.368,3.3689,3.3732,3.3764,3.3794,3.3848,3.388,3.3934,3.3988,3.4015,3.4015,3.409,3.4074,3.4074,3.4078,3.4111,3.4114,3.4118,3.4071,3.4071,3.4071,0,0,3.3491,3.3526,3.3564,3.3599,3.3653,3.3684,3.3693,3.3751,3.3774,3.3828,3.3853,3.3893,3.397,3.4008,3.4037,3.4076,3.4092,3.409,3.4095,3.4127,3.413,3.4134,3.4148,3.4153,3.4094,3.4094,3.4094,0,3.3484,3.3545,3.3581,3.3623,3.3653,3.3683,3.3723,3.3756,3.3822,3.3843,3.3843,3.3943,3.3981,3.4046,3.4056,3.4078,3.4092,3.4082,3.4127,3.413,3.4134,3.4148,3.4154,3.4093,3.4093,3.4093,3.4093,0,3.3535,3.3577,3.3602,3.3664,3.3697,3.3738,3.3782,3.3812,3.3833,3.3865,3.3922,3.3969,3.4025,3.4043,3.4064,3.4112,3.4111,3.4118,3.4117,3.4137,3.4151,3.4157,3.4092,3.4092,3.4093,3.4093,0,0,3.3536,3.362,3.3628,3.3658,3.3721,3.3756,3.38,3.3854,3.388,3.3926,3.3964,3.4031,3.4039,3.4073,3.4099,3.4126,3.4156,3.4131,3.4133,3.4134,3.4214,3.4207,3.4213,3.4168,3.4169,3.417,3.4209,0,3.3564,3.3641,3.3676,3.3739,3.378,3.3811,3.3849,3.3893,3.3925,3.3967,3.4003,3.405,3.4056,3.4077,3.4106,3.4145,3.4172,3.4143,3.4205,3.4207,3.419,3.422,3.4213,3.4248,3.4215,3.4216,3.4217,0,3.3606,3.3652,3.3718,3.3778,3.3797,3.3831,3.3885,3.3924,3.3976,3.3998,3.4036,3.4062,3.4111,3.4108,3.4178,3.4158,3.4186,3.4209,3.4212,3.4218,3.4212,3.4227,3.426,3.4265,3.4226,3.4225,3.4225,0,3.3602,3.368,3.373,3.3755,3.3826,3.385,3.3881,3.3932,3.3964,3.4012,3.4034,3.4088,3.4117,3.416,3.42,3.4193,3.4267,3.4266,3.4287,3.4286,3.43,3.4299,3.4337,3.4319,3.4319,3.4319,3.4319,0,3.3629,3.3668,3.3729,3.376,3.3806,3.3848,3.3893,3.3927,3.3973,3.4012,3.4044,3.408,3.4132,3.4176,3.4208,3.4262,3.4276,3.4296,3.4304,3.4293,3.429,3.4311,3.4309,3.432,3.432,3.432,3.432,0,3.363,3.3672,3.3729,3.3793,3.3811,3.3842,3.3898,3.393,3.3965,3.4015,3.4029,3.4084,3.4138,3.4183,3.4254,3.4276,3.4332,3.4342,3.4314,3.4318,3.4337,3.4335,3.439,3.44,3.4375,3.4375,3.4375,0,3.3644,3.3675,3.3743,3.3772,3.3802,3.3848,3.388,3.3924,3.3957,3.4021,3.4046,3.4102,3.4149,3.4234,3.4282,3.4337,3.4348,3.4364,3.4357,3.4345,3.4349,3.4346,3.435,3.4364,3.4364,3.4364,3.4364,0,3.3665,3.3685,3.373,3.3784,3.3822,3.3866,3.3912,3.3934,3.3986,3.4023,3.4078,3.4114,3.4187,3.4243,3.4304,3.4339,3.4361,3.4366,3.4374,3.4363,3.4345,3.4355,3.4315,3.4364,3.4364,3.4364,3.4364,3.4364,3.3674,3.3703,3.3756,3.3807,3.3846,3.3888,3.3922,3.3962,3.4008,3.407,3.4094,3.4151,3.4206,3.429,3.4325,3.4372,3.4374,3.4385,3.4388,3.439,3.4389,3.4339,3.4383,3.4383,3.4383,3.4383,3.4383,0,3.3696,3.3732,3.3778,3.3841,3.3881,3.3899,3.3951,3.3983,3.4033,3.4081,3.4127,3.4192,3.4248,3.4301,3.4359,3.4387,3.4398,3.44,3.4398,3.4406,3.4383,3.437,3.439,3.439,3.439,3.439,3.439,3.439,3.3713,3.3765,3.3792,3.3864,3.3901,3.3956,3.3985,3.4025,3.4064,3.4135,3.4181,3.4215,3.4266,3.4329,3.4381,3.4396,3.4416,3.4416,3.4433,3.4409,3.4408,3.4407,3.4395,3.442,3.442,3.4452,3.4453,3.4453]},{"header":{"parameterUnit":"m.s-1","parameterCategory":1,"la1":30.2991,"la2":30.254,"lo1":-89.0895,"lo2":-89.0444,"dy":0.0017,"dx":0.0017,"nx":28,"ny":28,"refTime":"2023-08-06T21:00:00:Z","depth":0,"parameterNumber":3,"parameterNumberName":"V-component_of_WINDS"},"data":[0,0,0,0,0,0,0,0,0,0,0,0,0,0,0,0,0,0,0,0,0,0,0,0,0,0,0,0,0,0,0,0,0,0,0,0,0,0,0,0,0,0,0,0,0,0,0,0,0,0,0,0,0,0,0,0,0,0,4.1121,4.1123,0,4.1246,4.1248,4.1249,4.1287,4.1286,4.1286,4.1285,4.1405,4.1409,4.1413,0,0,0,0,0,0,0,0,0,0,0,0,0,4.0906,4.091,4.1121,4.1123,4.1124,4.1246,4.1248,4.125,4.1287,4.1286,4.1286,4.1285,4.1404,4.1409,4.1413,0,0,0,0,0,0,0,0,0,0,0,0,0,4.1012,4.0911,4.1121,4.1158,4.1162,4.1246,4.1248,4.125,4.1287,4.1286,4.1285,4.1285,4.1403,4.1408,4.1414,4.1467,0,0,4.1431,4.1433,0,0,0,0,0,0,0,0,4.1006,4.102,4.1151,4.1155,4.1161,4.125,4.1216,4.1322,4.1287,4.124,4.1285,4.1284,4.1354,4.1364,4.1389,4.1472,4.1478,4.1431,4.1435,4.1437,4.1439,0,0,0,0,0,0,0,4.0999,4.1015,4.117,4.1153,4.1159,4.1165,4.1179,4.1236,4.13,4.1244,4.1247,4.1261,4.1356,4.1383,4.1392,4.1479,4.1431,4.1436,4.144,4.1442,4.1611,4.1612,0,0,0,0,0,0,4.0986,4.1008,4.1166,4.1174,4.108,4.117,4.1186,4.1222,4.13,4.1311,4.1262,4.1263,4.1374,4.1385,4.1396,4.1462,4.1437,4.1443,4.1446,4.161,4.1611,4.1612,0,0,0,0,0,0,4.0981,4.1,4.1161,4.1092,4.1113,4.1175,4.1215,4.1225,4.1252,4.1314,4.1324,4.1278,4.1374,4.1388,4.1449,4.1467,4.1445,4.145,4.1608,4.161,4.1611,4.1596,0,0,0,0,0,0,4.0975,4.0998,4.1021,4.1093,4.1117,4.1215,4.1217,4.1228,4.1263,4.1265,4.1332,4.1342,4.1374,4.144,4.1455,4.1474,4.1455,4.1607,4.1609,4.1611,4.1595,4.1597,4.1598,0,0,0,0,0,4.0967,4.101,4.1022,4.1041,4.1147,4.1216,4.1229,4.1268,4.1264,4.1286,4.1325,4.134,4.1463,4.1446,4.1463,4.1484,4.1606,4.1608,4.1611,4.1594,4.1596,4.1598,0,0,0,0,0,0,4.0936,4.102,4.1034,4.1102,4.1152,4.1222,4.1251,4.1269,4.1319,4.1318,4.1362,4.1376,4.1434,4.1465,4.1445,4.1539,4.1535,4.154,4.1516,4.1519,4.152,4.1511,4.1459,0,0,0,0,0,4.0938,4.0989,4.1058,4.1111,4.1136,4.1189,4.122,4.1246,4.1298,4.1319,4.1362,4.141,4.146,4.1491,4.154,4.16,4.1614,4.1622,4.1624,4.1625,4.1629,4.1661,4.1666,4.162,4.162,4.162,0,0,4.094,4.0992,4.1022,4.1106,4.1148,4.1197,4.1206,4.1259,4.1295,4.1326,4.1386,4.142,4.1476,4.1536,4.1565,4.1564,4.1645,4.1628,4.1629,4.1632,4.1664,4.1669,4.1672,4.1622,4.1621,4.1621,0,0,4.097,4.1016,4.1065,4.1106,4.117,4.1205,4.1217,4.1285,4.1309,4.1371,4.1395,4.1437,4.1522,4.1561,4.1591,4.1635,4.1649,4.1649,4.1657,4.1688,4.1692,4.1695,4.1709,4.1714,4.1654,4.1654,4.1654,0,4.0964,4.1043,4.1086,4.1138,4.1173,4.1206,4.1254,4.1291,4.1367,4.1389,4.1388,4.1495,4.1535,4.1603,4.1614,4.1639,4.1651,4.1642,4.1688,4.1692,4.1696,4.171,4.1715,4.1653,4.1653,4.1653,4.1653,0,4.1032,4.1086,4.1117,4.1192,4.1231,4.128,4.1328,4.1362,4.1383,4.1418,4.1479,4.1528,4.1587,4.1606,4.1627,4.1677,4.1675,4.168,4.1677,4.1699,4.1713,4.1719,4.1652,4.1653,4.1653,4.1653,0,0,4.1046,4.1144,4.1155,4.1189,4.1261,4.1302,4.1351,4.1412,4.1439,4.1489,4.153,4.1601,4.1607,4.1641,4.1667,4.1694,4.1724,4.1696,4.1698,4.1699,4.178,4.1775,4.1781,4.1734,4.1735,4.1736,4.1775,0,4.1084,4.1177,4.1217,4.1291,4.1339,4.1371,4.1414,4.1461,4.1494,4.1538,4.1573,4.1623,4.1627,4.1648,4.1677,4.1714,4.174,4.1712,4.177,4.1771,4.1754,4.1788,4.1783,4.1817,4.1781,4.1782,4.1783,0,4.1141,4.1195,4.1273,4.134,4.1362,4.14,4.1458,4.15,4.1554,4.1575,4.1614,4.1639,4.1689,4.1682,4.1751,4.173,4.1756,4.1778,4.178,4.1786,4.1778,4.1794,4.183,4.1834,4.1792,4.1791,4.179,0,4.1141,4.1233,4.1292,4.132,4.1399,4.1424,4.1458,4.1511,4.1544,4.1593,4.1615,4.1669,4.1698,4.1737,4.1774,4.1766,4.1838,4.1835,4.1855,4.1854,4.1868,4.1867,4.1908,4.1887,4.1887,4.1886,4.1886,0,4.1179,4.1226,4.1293,4.1329,4.1381,4.1426,4.1475,4.1511,4.1557,4.1599,4.1628,4.1665,4.1713,4.1755,4.1784,4.1835,4.1848,4.1865,4.1872,4.1862,4.186,4.1879,4.1877,4.1888,4.1888,4.1887,4.1887,0,4.1188,4.1235,4.1301,4.1371,4.139,4.1425,4.1483,4.1518,4.1553,4.1604,4.1619,4.1672,4.1724,4.1765,4.1832,4.1851,4.1904,4.1912,4.1887,4.189,4.1908,4.1905,4.1962,4.1971,4.1944,4.1945,4.1945,0,4.1209,4.1246,4.132,4.1351,4.1385,4.1435,4.147,4.1514,4.1548,4.1612,4.1638,4.1693,4.1739,4.1819,4.1862,4.1912,4.1921,4.1938,4.1929,4.1918,4.192,4.1917,4.192,4.1938,4.1938,4.1938,4.1938,0,4.124,4.1261,4.1312,4.1371,4.1412,4.1459,4.1507,4.153,4.1582,4.1619,4.1674,4.171,4.1779,4.1831,4.1887,4.1918,4.1936,4.1941,4.1948,4.1938,4.1921,4.1929,4.1888,4.1939,4.1939,4.1939,4.1939,4.1939,4.1254,4.1289,4.1346,4.1401,4.1443,4.1486,4.1523,4.1563,4.161,4.1672,4.1694,4.175,4.18,4.1877,4.1909,4.1951,4.1952,4.1962,4.1965,4.1967,4.1965,4.1915,4.1961,4.1961,4.1961,4.1961,4.1961,0,4.1286,4.1325,4.1375,4.1443,4.1485,4.1502,4.1555,4.1589,4.1638,4.1686,4.1731,4.1793,4.1844,4.1891,4.1944,4.1968,4.1978,4.198,4.1978,4.1985,4.1961,4.195,4.1972,4.1972,4.1972,4.1972,4.1972,4.1972,4.1308,4.1366,4.1394,4.1472,4.151,4.1567,4.1596,4.1636,4.1674,4.1743,4.1787,4.1818,4.1865,4.1921,4.1968,4.198,4.1997,4.1998,4.2012,4.1989,4.1987,4.1985,4.1974,4.2001,4.2001,4.2032,4.2032,4.2032]}]]